This is the latest recevied weather packets stored in our database for station/object DK8HC-WX. If no packets are shown the sender has not sent any weather packets the latest 10 day(s).
| Time | Temp. | Humidity | Pressure | Rain* | Wind** | Luminosity | Snow |
|---|---|---|---|---|---|---|---|
| 1777074661 | 6.11° C | 100% | 1023.2 hPa | - | - | - | - |
| 1777074062 | 6.11° C | 100% | 1023.2 hPa | - | - | - | - |
| 1777073462 | 6.11° C | 100% | 1023.2 hPa | - | - | - | - |
| 1777072861 | 6.11° C | 100% | 1023.3 hPa | - | - | - | - |
| 1777072262 | 6.11° C | 100% | 1023.2 hPa | - | - | - | - |
| 1777071661 | 6.11° C | 100% | 1023.1 hPa | - | - | - | - |
| 1777071061 | 6.11° C | 100% | 1023.1 hPa | - | - | - | - |
| 1777070461 | 5.56° C | 100% | 1022.9 hPa | - | - | - | - |
| 1777069861 | 5.56° C | 100% | 1022.6 hPa | - | - | - | - |
| 1777069261 | 5.56° C | 100% | 1022.4 hPa | - | - | - | - |
| 1777068661 | 5.56° C | 100% | 1022.2 hPa | - | - | - | - |
| 1777068061 | 5.56° C | 100% | 1021.9 hPa | - | - | - | - |
| 1777067461 | 5.56° C | 100% | 1021.8 hPa | - | - | - | - |
| 1777066861 | 6.11° C | 100% | 1021.7 hPa | - | - | - | - |
| 1777066261 | 6.11° C | 100% | 1021.6 hPa | - | - | - | - |
| 1777065661 | 6.11° C | 100% | 1021.6 hPa | - | - | - | - |
| 1777065061 | 6.11° C | 100% | 1021.5 hPa | - | - | - | - |
| 1777064463 | 6.67° C | 100% | 1021.5 hPa | - | - | - | - |
| 1777063861 | 6.67° C | 100% | 1021.3 hPa | - | - | - | - |
| 1777063261 | 7.22° C | 100% | 1021.1 hPa | - | - | - | - |
| 1777062661 | 7.22° C | 100% | 1021 hPa | - | - | - | - |
| 1777062061 | 7.78° C | 100% | 1021 hPa | - | - | - | - |
| 1777061460 | 7.78° C | 100% | 1021 hPa | - | - | - | - |
| 1777060860 | 7.78° C | 100% | 1020.9 hPa | - | - | - | - |
| 1777060260 | 8.33° C | 100% | 1020.8 hPa | - | - | - | - |
* Rain since midnight (hover to see other rain measurements)
** Current wind speed in m/s (hover to see current wind gust speed)